Terminal Aerodrome Forecast
Issued by NWS

Home | Current Version | Previous Version | Graphics & Text | Print | Product List | Glossary On
Versions: 1 2 3 4 5 6 7 8 9 10 11 12 13 14 15 16 17 18 19 20 21 22 23
000
FTUS41 KCLE 312208 AAA
TAFFDY
TAF AMD
KFDY 312208Z 3122/0118 04015KT P6SM SCT008 OVC012
      TEMPO 3122/0101 -RA BKN008 OVC012
     FM010200 01010KT P6SM SCT008 OVC015
     FM011700 04012KT P6SM OVC015=

USA.gov is the U.S. government's official web portal to all federal, state and local government web resources and services.